This demonstration page uses our WeatherBlox Daily Observations layout. Learn more.

Left ArrowRight Arrow

39.01783, -85.05884

Hourly Observations for February 2, 2020

Temp ( °F °C ) Dew Point ( °F °C ) Humidity (%) Winds ( mph kmh ) Pressure ( in mb ) Visibility ( mi km ) Precip ( " mm )
12:52 am 00:52 Mostly Cloudy 35 1.7 28 -2.2 76 76 W 9 15 29.88 1012 10 16.0934 0 0
1:52 am 01:52 Partly Cloudy 35 1.7 28 -2.2 76 76 SW 6 9 29.85 1011 10 16.0934 0 0
2:52 am 02:52 Cloudy 35 1.7 28 -2.2 76 76 SSW 9 15 29.85 1011 10 16.0934 0 0
3:52 am 03:52 Partly Cloudy 34 1.1 28 -2.2 79 79 SSW 8 13 29.82 1010 9 14.48406 0 0
4:52 am 04:52 Mostly Clear 34 1.1 29 -1.7 82 82 SSW 12 19 29.78 1009 8 12.87472 0 0
5:52 am 05:52 Partly Cloudy 34 1.1 29 -1.7 82 82 SSW 12 19 29.76 1008 8 12.87472 0 0
6:52 am 06:52 Partly Cloudy 34 1.1 29 -1.7 82 82 SSW 13 20 29.72 1006 10 16.0934 0 0
7:52 am 07:52 Mostly Sunny 35 1.7 29 -1.7 78 78 SSW 14 22 29.7 1006 10 16.0934 0 0
8:52 am 08:52 Mostly Cloudy 39 3.9 29 -1.7 67 67 SW 14 22 29.68 1005 10 16.0934 0 0
9:52 am 09:52 Mostly Cloudy 41 5 30 -1.1 65 65 SW 17 28 29.67 1005 10 16.0934 0 0
10:52 am 10:52 Partly Cloudy 48 8.9 31 -0.6 52 52 WSW 17 28 29.67 1005 10 16.0934 0 0
11:52 am 11:52 Partly Cloudy 51 10.6 33 0.6 50 50 SW 15 24 29.66 1005 10 16.0934 0 0
12:52 pm 12:52 Mostly Sunny 55 12.8 34 1.1 45 45 WSW 16 26 29.65 1004 10 16.0934 0 0
1:52 pm 13:52 Mostly Sunny 59 15 34 1.1 39 39 WSW 15 24 29.63 1004 10 16.0934 0 0
2:52 pm 14:52 Mostly Sunny 63 17.2 33 0.6 33 33 WSW 13 20 29.63 1004 10 16.0934 0 0
3:52 pm 15:52 Mostly Sunny 63 17.2 32 0 31 31 WSW 16 26 29.64 1004 10 16.0934 0 0
4:52 pm 16:52 Partly Cloudy 62 16.7 33 0.6 34 34 WSW 13 20 29.65 1004 10 16.0934 0 0
5:52 pm 17:52 Partly Cloudy 60 15.6 34 1.1 38 38 WSW 12 19 29.69 1005 10 16.0934 0 0
6:52 pm 18:52 Partly Cloudy 57 13.9 34 1.1 42 42 SW 12 19 29.74 1007 10 16.0934 0 0
7:52 pm 19:52 Mostly Clear 56 13.3 34 1.1 44 44 WSW 12 19 29.78 1008 10 16.0934 0 0
8:52 pm 20:52 Clear 55 12.8 35 1.7 47 47 SW 14 22 29.78 1008 10 16.0934 0 0
9:52 pm 21:52 Clear 54 12.2 35 1.7 49 49 SW 13 20 29.79 1009 10 16.0934 0 0
10:52 pm 22:52 Clear 52 11.1 35 1.7 53 53 SW 9 15 29.81 1010 10 16.0934 0 0
11:52 pm 23:52 Clear 49 9.4 35 1.7 59 59 SW 7 11 29.82 1010 10 16.0934 0 0

Powered by AerisWeather